[[{"header":{"parameterUnit":"m.s-1","parameterCategory":1,"la1":30.2991,"la2":30.254,"lo1":-89.0895,"lo2":-89.0444,"dy":0.0017,"dx":0.0017,"nx":28,"ny":28,"refTime":"2023-10-29T21:00:00:Z","depth":0,"parameterNumber":2,"parameterNumberName":"U-component_of_WINDS"},"data":[0,0,0,0,0,0,0,0,0,0,0,0,0,0,0,0,0,0,0,0,0,0,0,0,0,0,0,0,0,0,0,0,0,0,0,0,0,0,0,0,0,0,0,0,0,0,0,0,0,0,0,0,0,0,0,0,0,0,-0.0403,-0.0404,0,-0.0429,-0.043,-0.043,-0.0424,-0.0423,-0.0423,-0.0422,-0.045,-0.0451,-0.0453,0,0,0,0,0,0,0,0,0,0,0,0,0,-0.0349,-0.035,-0.0403,-0.0404,-0.0404,-0.0429,-0.043,-0.043,-0.0424,-0.0423,-0.0423,-0.0422,-0.045,-0.0451,-0.0453,0,0,0,0,0,0,0,0,0,0,0,0,0,-0.0374,-0.035,-0.0403,-0.0404,-0.0404,-0.0429,-0.043,-0.043,-0.0424,-0.0423,-0.0423,-0.0422,-0.0449,-0.0451,-0.0453,-0.0479,0,0,-0.0459,-0.0459,0,0,0,0,0,0,0,0,-0.0372,-0.0376,-0.0404,-0.0404,-0.0404,-0.0423,-0.0421,-0.0447,-0.0424,-0.0417,-0.0422,-0.0421,-0.0442,-0.0444,-0.0451,-0.0481,-0.0482,-0.0459,-0.046,-0.0461,-0.0461,0,0,0,0,0,0,0,-0.037,-0.0374,-0.0414,-0.0404,-0.0404,-0.0403,-0.0406,-0.0426,-0.0433,-0.0417,-0.0417,-0.042,-0.0442,-0.0449,-0.0451,-0.0482,-0.0459,-0.046,-0.0461,-0.0462,-0.0534,-0.0535,0,0,0,0,0,0,-0.0368,-0.0373,-0.0413,-0.0414,-0.0386,-0.0405,-0.0408,-0.0417,-0.0433,-0.0434,-0.0421,-0.042,-0.0446,-0.0449,-0.0452,-0.0484,-0.0461,-0.0462,-0.0463,-0.0533,-0.0534,-0.0535,0,0,0,0,0,0,-0.0367,-0.0372,-0.0412,-0.0394,-0.0399,-0.0406,-0.0418,-0.0418,-0.0426,-0.0435,-0.0437,-0.0426,-0.0446,-0.045,-0.0472,-0.0485,-0.0463,-0.0465,-0.0532,-0.0533,-0.0535,-0.0547,0,0,0,0,0,0,-0.0366,-0.0372,-0.0382,-0.0394,-0.04,-0.0431,-0.0418,-0.0419,-0.0429,-0.0427,-0.0441,-0.0443,-0.0445,-0.047,-0.0474,-0.0487,-0.0466,-0.0531,-0.0533,-0.0534,-0.0546,-0.0549,-0.0551,0,0,0,0,0,-0.0364,-0.0385,-0.0382,-0.0387,-0.0412,-0.0432,-0.0435,-0.0438,-0.043,-0.044,-0.0446,-0.0442,-0.0482,-0.0472,-0.0477,-0.049,-0.053,-0.0532,-0.0534,-0.0544,-0.0548,-0.0551,0,0,0,0,0,0,-0.0374,-0.0386,-0.0384,-0.0409,-0.042,-0.0431,-0.0444,-0.0442,-0.0455,-0.0453,-0.0456,-0.0459,-0.0482,-0.0488,-0.0477,-0.0516,-0.0505,-0.0508,-0.0511,-0.0515,-0.0518,-0.0516,-0.0468,0,0,0,0,0,-0.038,-0.0394,-0.0404,-0.0426,-0.0431,-0.0436,-0.0445,-0.0446,-0.0457,-0.0462,-0.0469,-0.048,-0.0495,-0.0505,-0.052,-0.0546,-0.0549,-0.0558,-0.056,-0.0563,-0.0565,-0.0579,-0.0583,-0.0541,-0.0541,-0.0541,0,0,-0.0391,-0.0399,-0.0409,-0.0428,-0.0436,-0.0451,-0.044,-0.0457,-0.0469,-0.0464,-0.0486,-0.0492,-0.0504,-0.0529,-0.054,-0.0535,-0.0577,-0.0565,-0.0567,-0.0568,-0.0582,-0.0586,-0.0589,-0.0542,-0.0542,-0.0542,0,0,-0.0419,-0.0427,-0.0445,-0.0453,-0.0466,-0.0469,-0.0473,-0.0485,-0.0488,-0.051,-0.0507,-0.052,-0.0546,-0.0555,-0.0563,-0.0593,-0.059,-0.0597,-0.0612,-0.0626,-0.0629,-0.0632,-0.0643,-0.0647,-0.06,-0.06,-0.06,0,-0.0432,-0.0455,-0.0456,-0.0472,-0.0481,-0.0476,-0.0495,-0.0503,-0.0519,-0.0526,-0.0519,-0.0551,-0.0559,-0.0585,-0.0592,-0.0599,-0.0604,-0.0596,-0.0628,-0.0631,-0.0634,-0.0644,-0.0649,-0.0601,-0.0601,-0.0601,-0.0601,0,-0.047,-0.0485,-0.0499,-0.0514,-0.0524,-0.0542,-0.0545,-0.0555,-0.0554,-0.0558,-0.058,-0.0589,-0.0605,-0.0611,-0.0611,-0.0637,-0.0633,-0.0628,-0.0617,-0.0639,-0.0649,-0.0653,-0.0602,-0.0602,-0.0601,-0.0601,0,0,-0.0507,-0.0521,-0.0526,-0.0533,-0.0545,-0.0557,-0.0575,-0.0589,-0.0598,-0.0609,-0.0623,-0.0644,-0.0639,-0.0648,-0.0648,-0.066,-0.0683,-0.0653,-0.0653,-0.0658,-0.0712,-0.0717,-0.0721,-0.0681,-0.0681,-0.0682,-0.0711,0,-0.0537,-0.0567,-0.0568,-0.0595,-0.061,-0.0605,-0.062,-0.0629,-0.0633,-0.0645,-0.065,-0.0665,-0.0656,-0.0661,-0.0673,-0.0678,-0.0694,-0.0676,-0.0695,-0.0695,-0.0692,-0.0726,-0.0732,-0.0759,-0.0715,-0.0715,-0.0716,0,-0.0576,-0.0587,-0.0617,-0.0626,-0.0632,-0.0645,-0.0659,-0.0671,-0.0681,-0.0682,-0.0692,-0.069,-0.0707,-0.0695,-0.0719,-0.0706,-0.0714,-0.0717,-0.0719,-0.0721,-0.0708,-0.073,-0.0767,-0.0772,-0.0722,-0.0721,-0.0721,0,-0.0601,-0.0623,-0.0643,-0.0649,-0.066,-0.067,-0.0675,-0.0684,-0.0693,-0.0704,-0.071,-0.0723,-0.073,-0.0741,-0.0743,-0.0733,-0.0766,-0.0754,-0.0769,-0.0769,-0.0777,-0.0776,-0.0816,-0.0781,-0.0781,-0.078,-0.078,0,-0.0634,-0.0652,-0.0655,-0.0667,-0.0687,-0.0687,-0.0706,-0.0711,-0.0719,-0.0732,-0.0728,-0.0741,-0.0742,-0.0755,-0.0756,-0.0776,-0.0779,-0.0781,-0.0782,-0.0782,-0.0782,-0.0788,-0.0786,-0.0782,-0.0781,-0.0781,-0.0781,0,-0.0666,-0.0668,-0.069,-0.0698,-0.07,-0.0715,-0.0722,-0.0734,-0.0736,-0.0753,-0.0757,-0.0761,-0.0776,-0.0779,-0.0796,-0.0797,-0.082,-0.0818,-0.0817,-0.0817,-0.0831,-0.083,-0.0876,-0.0882,-0.0843,-0.0843,-0.0843,0,-0.0688,-0.0701,-0.0711,-0.0719,-0.0724,-0.0738,-0.0746,-0.0746,-0.0755,-0.0767,-0.0777,-0.0791,-0.0802,-0.0826,-0.0831,-0.0844,-0.0843,-0.0858,-0.0845,-0.0844,-0.0843,-0.0843,-0.0844,-0.0861,-0.0861,-0.0862,-0.0862,0,-0.0726,-0.0726,-0.0738,-0.075,-0.076,-0.077,-0.0779,-0.0786,-0.0787,-0.0797,-0.0812,-0.082,-0.0837,-0.0852,-0.0864,-0.087,-0.0866,-0.0866,-0.087,-0.0871,-0.087,-0.0871,-0.0824,-0.0865,-0.0865,-0.0865,-0.0865,-0.0864,-0.0753,-0.0765,-0.0773,-0.0786,-0.0793,-0.0801,-0.0813,-0.0816,-0.0828,-0.0842,-0.0841,-0.0857,-0.0866,-0.0882,-0.0888,-0.0901,-0.0896,-0.0902,-0.0903,-0.0905,-0.0906,-0.0867,-0.0903,-0.0903,-0.0903,-0.0903,-0.0903,0,-0.0792,-0.0796,-0.0808,-0.0821,-0.0831,-0.0826,-0.0835,-0.0845,-0.0859,-0.0866,-0.0877,-0.0894,-0.0907,-0.0912,-0.0925,-0.0934,-0.0932,-0.0937,-0.0937,-0.0938,-0.091,-0.0905,-0.0938,-0.0938,-0.0938,-0.0938,-0.0938,-0.0938,-0.0813,-0.0832,-0.0833,-0.0855,-0.086,-0.0875,-0.0881,-0.0888,-0.0895,-0.0913,-0.0924,-0.0926,-0.0933,-0.0946,-0.0958,-0.0959,-0.0964,-0.097,-0.097,-0.0944,-0.094,-0.0937,-0.0932,-0.0971,-0.0971,-0.0998,-0.0998,-0.0998]},{"header":{"parameterUnit":"m.s-1","parameterCategory":1,"la1":30.2991,"la2":30.254,"lo1":-89.0895,"lo2":-89.0444,"dy":0.0017,"dx":0.0017,"nx":28,"ny":28,"refTime":"2023-10-29T21:00:00:Z","depth":0,"parameterNumber":3,"parameterNumberName":"V-component_of_WINDS"},"data":[0,0,0,0,0,0,0,0,0,0,0,0,0,0,0,0,0,0,0,0,0,0,0,0,0,0,0,0,0,0,0,0,0,0,0,0,0,0,0,0,0,0,0,0,0,0,0,0,0,0,0,0,0,0,0,0,0,0,-8.2329,-8.2329,0,-8.2417,-8.2418,-8.2419,-8.2343,-8.234,-8.2337,-8.2334,-8.2417,-8.2422,-8.2427,0,0,0,0,0,0,0,0,0,0,0,0,0,-8.2087,-8.2092,-8.2328,-8.233,-8.2331,-8.2417,-8.2418,-8.2419,-8.2343,-8.234,-8.2336,-8.2332,-8.2415,-8.2421,-8.2427,0,0,0,0,0,0,0,0,0,0,0,0,0,-8.2185,-8.2093,-8.2328,-8.2303,-8.2302,-8.2417,-8.2418,-8.2419,-8.2344,-8.234,-8.2335,-8.233,-8.2413,-8.242,-8.2428,-8.2569,0,0,-8.2451,-8.2455,0,0,0,0,0,0,0,0,-8.2179,-8.2194,-8.2306,-8.2305,-8.2304,-8.2364,-8.2363,-8.2469,-8.2345,-8.2328,-8.2334,-8.2328,-8.2402,-8.2411,-8.2437,-8.2573,-8.2576,-8.2452,-8.2457,-8.246,-8.2462,0,0,0,0,0,0,0,-8.2173,-8.219,-8.2363,-8.2308,-8.2307,-8.2285,-8.2294,-8.2383,-8.239,-8.2329,-8.2324,-8.2336,-8.2401,-8.243,-8.2439,-8.2578,-8.2452,-8.2459,-8.2463,-8.2466,-8.2833,-8.2838,0,0,0,0,0,0,-8.217,-8.2184,-8.236,-8.2366,-8.2229,-8.2294,-8.2304,-8.235,-8.2389,-8.2391,-8.234,-8.2332,-8.2419,-8.243,-8.2441,-8.2609,-8.246,-8.2467,-8.2472,-8.2828,-8.2834,-8.284,0,0,0,0,0,0,-8.2165,-8.2186,-8.2357,-8.2274,-8.2294,-8.2303,-8.2355,-8.2354,-8.2383,-8.2397,-8.2397,-8.2369,-8.2416,-8.243,-8.2538,-8.2611,-8.2471,-8.2478,-8.2822,-8.283,-8.2837,-8.2945,0,0,0,0,0,0,-8.2158,-8.2185,-8.224,-8.2276,-8.2299,-8.2455,-8.236,-8.2359,-8.2397,-8.2388,-8.2424,-8.2426,-8.2413,-8.2527,-8.2546,-8.2619,-8.2484,-8.2815,-8.2825,-8.2834,-8.2935,-8.2956,-8.2973,0,0,0,0,0,-8.215,-8.2265,-8.2243,-8.2265,-8.2369,-8.2459,-8.2472,-8.2458,-8.2403,-8.2458,-8.2467,-8.2425,-8.26,-8.2539,-8.2559,-8.2635,-8.2811,-8.2822,-8.2834,-8.2927,-8.2952,-8.2973,0,0,0,0,0,0,-8.2234,-8.2269,-8.2245,-8.2376,-8.2416,-8.2446,-8.2514,-8.2485,-8.2538,-8.2527,-8.2504,-8.2513,-8.2627,-8.2642,-8.2573,-8.2774,-8.2696,-8.2712,-8.276,-8.2784,-8.2803,-8.2796,-8.249,0,0,0,0,0,-8.2269,-8.2342,-8.2368,-8.2481,-8.2502,-8.2506,-8.2544,-8.253,-8.2569,-8.2584,-8.2601,-8.2638,-8.2702,-8.2743,-8.2803,-8.2937,-8.2943,-8.3,-8.3019,-8.3034,-8.3048,-8.312,-8.3145,-8.2878,-8.2877,-8.2877,0,0,-8.234,-8.2368,-8.2415,-8.2499,-8.2527,-8.2602,-8.252,-8.2601,-8.2655,-8.2595,-8.2699,-8.2713,-8.2753,-8.2875,-8.2929,-8.2891,-8.3124,-8.3049,-8.3061,-8.3067,-8.3134,-8.316,-8.3182,-8.2885,-8.2884,-8.2883,0,0,-8.2507,-8.2536,-8.2634,-8.2665,-8.2711,-8.2713,-8.2737,-8.2772,-8.278,-8.2884,-8.2841,-8.2904,-8.3014,-8.3044,-8.3074,-8.3254,-8.3217,-8.3274,-8.3373,-8.3443,-8.3464,-8.3482,-8.3546,-8.3569,-8.3288,-8.3288,-8.3288,0,-8.2588,-8.2701,-8.2687,-8.2773,-8.281,-8.2763,-8.2861,-8.2891,-8.2952,-8.2978,-8.2935,-8.3073,-8.3096,-8.3224,-8.3269,-8.3295,-8.3319,-8.3269,-8.3463,-8.3481,-8.3498,-8.3558,-8.3582,-8.3295,-8.3294,-8.3293,-8.3293,0,-8.2798,-8.2877,-8.295,-8.3014,-8.306,-8.3151,-8.3149,-8.3196,-8.3179,-8.3185,-8.3291,-8.3318,-8.3381,-8.3411,-8.3393,-8.3537,-8.3512,-8.3466,-8.3387,-8.353,-8.3586,-8.3609,-8.3304,-8.3302,-8.33,-8.3298,0,0,-8.3019,-8.3077,-8.3104,-8.3133,-8.3181,-8.324,-8.3328,-8.3394,-8.3434,-8.3479,-8.3551,-8.3646,-8.3605,-8.3638,-8.3624,-8.3686,-8.3826,-8.3632,-8.3633,-8.3667,-8.3985,-8.4018,-8.4045,-8.3802,-8.3807,-8.381,-8.3981,0,-8.3188,-8.3345,-8.3336,-8.3482,-8.3554,-8.3511,-8.3588,-8.3624,-8.3632,-8.3692,-8.3699,-8.3767,-8.3708,-8.3728,-8.3788,-8.3797,-8.389,-8.3784,-8.3867,-8.387,-8.3858,-8.4075,-8.411,-8.4271,-8.4003,-8.4007,-8.401,0,-8.3405,-8.3461,-8.3615,-8.3653,-8.3683,-8.3753,-8.3812,-8.3871,-8.3911,-8.3912,-8.3951,-8.3927,-8.4014,-8.3935,-8.4053,-8.3982,-8.4015,-8.4025,-8.4031,-8.4037,-8.3948,-8.4086,-8.4321,-8.4345,-8.4044,-8.4042,-8.4039,0,-8.355,-8.3663,-8.377,-8.3796,-8.3843,-8.3893,-8.3915,-8.395,-8.3991,-8.4042,-8.4067,-8.4127,-8.4159,-8.4205,-8.4196,-8.414,-8.4317,-8.4237,-8.4319,-8.4319,-8.4357,-8.4354,-8.46,-8.4381,-8.438,-8.438,-8.4379,0,-8.3739,-8.3835,-8.3836,-8.3902,-8.4008,-8.3996,-8.41,-8.4115,-8.4148,-8.4214,-8.4179,-8.4242,-8.4227,-8.4289,-8.4282,-8.4381,-8.4396,-8.4398,-8.4395,-8.4401,-8.44,-8.4421,-8.4409,-8.4386,-8.4385,-8.4383,-8.4382,0,-8.3918,-8.3923,-8.4037,-8.4074,-8.4085,-8.4161,-8.4191,-8.4252,-8.4258,-8.4342,-8.4361,-8.4369,-8.444,-8.4437,-8.4516,-8.4511,-8.4633,-8.4617,-8.4621,-8.4617,-8.4698,-8.469,-8.4965,-8.5,-8.4759,-8.4761,-8.4763,0,-8.4037,-8.4111,-8.4156,-8.42,-8.4225,-8.4295,-8.4337,-8.4328,-8.4372,-8.4424,-8.4478,-8.4546,-8.46,-8.4715,-8.4726,-8.4786,-8.4771,-8.4863,-8.478,-8.4783,-8.4771,-8.4767,-8.4773,-8.4879,-8.4882,-8.4884,-8.4886,0,-8.4248,-8.4248,-8.4311,-8.4376,-8.4427,-8.4476,-8.4521,-8.4558,-8.4553,-8.4605,-8.4678,-8.472,-8.4803,-8.487,-8.4928,-8.4947,-8.4916,-8.4913,-8.4934,-8.494,-8.4939,-8.494,-8.4664,-8.4906,-8.4904,-8.4902,-8.4901,-8.49,-8.44,-8.4464,-8.4506,-8.4578,-8.4611,-8.4655,-8.4715,-8.4729,-8.4791,-8.486,-8.485,-8.4932,-8.4969,-8.5044,-8.5069,-8.5131,-8.5098,-8.513,-8.5138,-8.5146,-8.5155,-8.4931,-8.5142,-8.5141,-8.5141,-8.514,-8.514,0,-8.4609,-8.4635,-8.4701,-8.4767,-8.4823,-8.4792,-8.4841,-8.4888,-8.4962,-8.5001,-8.5056,-8.514,-8.5206,-8.5224,-8.5286,-8.5332,-8.5319,-8.5349,-8.5345,-8.5349,-8.5181,-8.5156,-8.5359,-8.5359,-8.5359,-8.5358,-8.5358,-8.5358,-8.4724,-8.483,-8.4835,-8.4956,-8.498,-8.5063,-8.5093,-8.5132,-8.5164,-8.5261,-8.5316,-8.5328,-8.5358,-8.5423,-8.5481,-8.5485,-8.5509,-8.5544,-8.5541,-8.5383,-8.5361,-8.534,-8.5316,-8.555,-8.555,-8.5704,-8.5706,-8.5707]}]]